Location: Bryzozowice
(50.3667°N, 18.9667°E)
Time: 12:12:13
(UTC+00:00)

H-2A R/B - Pass Details

Date: 24 January 2020
Orbit: 734 x 836 km, 98.2° (Epoch: 17 February)

Event Time Altitude Azimuth Distance (km) Brightness Sun altitude
Exits shadow 19:30:16 21° 299° (WNW) 1,660 4.2 -38.9°
Drops below altitude 10° 19:32:45 10° 324° (NW) 2,330 5.0 -39.3°
Sets 19:35:29 0° 337° (NNW) 3,281 5.7 -39.7°
